This is the latest recevied weather packets stored in our database for station/object KD2FGL-13. If no packets are shown the sender has not sent any weather packets the latest 10 day(s).
| Time | Temp. | Humidity | Pressure | Rain* | Wind** | Luminosity | Snow |
|---|---|---|---|---|---|---|---|
| 1787830964 | 19.44° C | 59% | 1019.7 hPa | 0 mm | - | - | - |
| 1787830055 | 19.44° C | 59% | 1019.9 hPa | 0 mm | - | - | - |
| 1787829141 | 18.89° C | 59% | 1020.1 hPa | 0 mm | - | - | - |
| 1787828838 | 18.89° C | 59% | 1020.1 hPa | 0 mm | - | - | - |
| 1787827925 | 18.33° C | 59% | 1020.1 hPa | 0 mm | - | - | - |
| 1787827621 | 18.33° C | 59% | 1020.2 hPa | 0 mm | - | - | - |
| 1787827318 | 18.33° C | 59% | 1020 hPa | 0 mm | - | - | - |
| 1787826102 | 18.33° C | 59% | 1020 hPa | 0 mm | - | - | - |
| 1787824585 | 18.33° C | 59% | 1019.8 hPa | 0 mm | - | - | - |
| 1787823670 | 18.33° C | 59% | 1019.5 hPa | 0 mm | - | - | - |
| 1787823366 | 18.33° C | 59% | 1019.6 hPa | 0 mm | - | - | - |
| 1787823063 | 18.33° C | 59% | 1019.5 hPa | 0 mm | - | - | - |
| 1787822759 | 18.33° C | 59% | 1019.5 hPa | 0 mm | - | - | - |
| 1787821543 | 18.89° C | 58% | 1019.5 hPa | 0 mm | - | - | - |
| 1787820327 | 18.89° C | 57% | 1019.6 hPa | 0 mm | - | - | - |
| 1787819112 | 19.44° C | 57% | 1019.7 hPa | 0 mm | - | - | - |
| 1787817897 | 19.44° C | 56% | 1019.6 hPa | 0 mm | - | - | - |
| 1787816985 | 19.44° C | 56% | 1019.7 hPa | 0 mm | - | - | - |
| 1787816376 | 19.44° C | 56% | 1019.8 hPa | 0 mm | - | - | - |
| 1787814857 | 19.44° C | 56% | 1019.7 hPa | 0 mm | - | - | - |
| 1787813945 | 19.44° C | 56% | 1019.8 hPa | 0 mm | - | - | - |
| 1787813641 | 19.44° C | 55% | 1019.8 hPa | 0 mm | - | - | - |
| 1787813033 | 19.44° C | 55% | 1019.8 hPa | 0 mm | - | - | - |
| 1787811210 | 19.44° C | 55% | 1019.8 hPa | 0 mm | - | - | - |
| 1787809082 | 20° C | 55% | 1019.8 hPa | 0 mm | - | - | - |
* Rain since midnight (hover to see other rain measurements)
** Current wind speed in m/s (hover to see current wind gust speed)